Location: Sobotiste
(48.7170°N, 17.4000°E)
Time: 22:20:31
(UTC+01:00)

ISS - Visible Passes

Search period start: 12 December 2018 00:00
Search period end: 22 December 2018 00:00
Orbit: 401 x 408 km, 51.6° (Epoch: 13 December)

Date Brightness Start Highest point End Pass type
(mag) Time Alt. Az. Time Alt. Az. Time Alt. Az.
12 Dec -1.7 17:23:10 10° W 17:26:01 27° SW 17:28:50 10° SSE visible
13 Dec -2.5 16:30:50 10° WNW 16:33:58 44° SSW 16:37:05 10° SE visible
14 Dec -0.6 17:16:00 10° WSW 17:17:51 14° SW 17:19:41 10° S visible
